Location: Unspecified
(41.4057°N, 2.1753°E)
Time: 21:03:51
(UTC+02:00)

ISS - Visible Passes

Search period start: 17 April 2014 00:00
Search period end: 27 April 2014 00:00
Orbit: 414 x 419 km, 51.6° (Epoch: 17 April)

Date Brightness Start Highest point End Pass type
(mag) Time Alt. Az. Time Alt. Az. Time Alt. Az.
17 Apr -1.2 22:04:02 10° NNW 22:06:39 20° NNE 22:08:06 16° NE visible
17 Apr -0.1 23:40:25 10° NW 23:41:00 14° NW 23:41:00 14° NW visible
18 Apr -0.9 21:15:50 10° NNW 21:18:08 17° NNE 21:20:26 10° NE visible
18 Apr -1.9 22:52:09 10° NW 22:54:34 39° NNW 22:54:34 39° NNW visible
19 Apr -2.1 22:03:55 10° NW 22:07:02 35° NNE 22:08:07 27° ENE visible
19 Apr 0.0 23:40:43 10° WNW 23:41:01 12° WNW 23:41:01 12° WNW visible
20 Apr -1.6 21:15:40 10° NW 21:18:31 25° NNE 21:21:23 10° E visible
20 Apr -2.1 22:52:10 10° WNW 22:54:34 40° W 22:54:34 40° W visible
21 Apr -3.3 22:03:42 10° NW 22:07:04 82° NE 22:08:06 42° ESE visible
22 Apr -2.7 21:15:18 10° NW 21:18:35 49° NNE 21:21:40 11° ESE visible
22 Apr -1.1 22:52:33 10° W 22:54:34 19° WSW 22:54:34 19° WSW visible
23 Apr -2.1 22:03:38 10° WNW 22:06:44 34° SW 22:08:09 23° S visible
24 Apr -2.9 21:14:56 10° WNW 21:18:15 62° SW 21:21:34 10° SE visible
25 Apr -0.6 22:04:28 10° WSW 22:06:00 13° SW 22:07:31 10° SSW visible
26 Apr -1.1 21:14:55 10° W 21:17:34 22° SW 21:20:12 10° S visible
